Date String (YYYY-MM-DD hh:mm:ss) UTC,Instrument flags,Ambient pressure (hPa),Sample flow (lpm),Bypass flow (lpm),Sample temperature (°C),Ambient temperature (°C),ASC tube jacket temperature (°C),LED temperature (°C),Box temperature (°C),Sample RH (%),Span deviation,Mass concentration (μg/m³),Mass concentration (μg/m³),Mass concentration (μg/m³)
DateTimeUTC,F1_M11,P_M11,Q1_M11,Q2_M11,T1_M11,T2_M11,T3_M11,T4_M11,T5_M11,U1_M11,ZSPAN_M11,X0_M11,X2_M11,X1_M11
2022-07-05 04:00:00,,0827.1,5.01,0.00,29.3,27.5,00.0,38.1,31.1,25.3,0000.0,0005.16,0002.48,0001.76
2022-07-05 04:01:00,,0827.0,5.00,0.00,29.3,27.6,00.0,38.1,31.2,25.4,0000.0,0005.24,0002.53,0001.77
2022-07-05 04:02:00,,0827.0,4.99,0.00,29.3,27.7,00.0,38.1,31.2,25.4,0000.0,0005.30,0002.56,0001.79
2022-07-05 04:03:00,,0827.0,5.00,0.00,29.3,27.9,00.0,38.1,31.2,25.2,0000.0,0005.28,0002.57,0001.81
2022-07-05 04:04:00,,0827.1,5.01,0.00,29.4,28.0,00.0,38.1,31.3,25.2,0000.0,0005.22,0002.56,0001.83
2022-07-05 04:05:00,,0827.1,5.00,0.00,29.4,28.1,00.0,38.1,31.3,25.2,0000.0,0005.19,0002.54,0001.85
2022-07-05 04:06:00,,0827.4,5.00,0.00,29.4,28.2,00.0,38.1,31.3,25.3,0000.0,0005.87,0002.56,0001.88
2022-07-05 04:07:00,,0827.2,5.00,0.00,29.4,28.3,00.0,38.1,31.4,25.3,0000.0,0005.25,0002.59,0001.90
2022-07-05 04:08:00,,0827.1,5.00,0.00,29.4,28.4,00.0,38.2,31.4,25.2,0000.0,0005.12,0002.58,0001.92
2022-07-05 04:09:00,,0827.1,4.99,0.00,29.5,28.5,00.0,38.2,31.4,25.2,0000.0,0004.86,0002.55,0001.95
2022-07-05 04:10:00,,0827.1,5.01,0.00,29.5,28.5,00.0,38.2,31.5,25.3,0000.0,0005.65,0002.57,0001.99
2022-07-05 04:11:00,,0827.2,5.01,0.00,29.5,28.5,00.0,38.2,31.5,24.9,0000.0,0005.91,0002.59,0002.02
2022-07-05 04:12:00,,0827.1,4.99,0.00,29.5,27.8,00.0,38.1,31.4,24.7,0000.0,0006.13,0002.66,0002.04
2022-07-05 04:13:00,,0827.2,5.01,0.00,29.5,27.4,00.0,38.1,31.3,24.5,0000.0,0006.16,0002.64,0002.04
2022-07-05 04:14:00,,0827.0,5.00,0.00,29.4,27.4,00.0,38.1,31.2,24.8,0000.0,0006.20,0002.65,0002.04
2022-07-05 04:15:00,,0826.9,5.00,0.00,29.4,27.5,00.0,38.1,31.2,25.1,0000.0,0006.22,0002.64,0002.04
2022-07-05 04:16:00,,0827.2,4.99,0.00,29.4,27.6,00.0,38.1,31.2,25.1,0000.0,0006.22,0002.66,0002.04
2022-07-05 04:17:00,,0827.2,5.00,0.00,29.4,27.7,00.0,38.1,31.2,25.2,0000.0,0005.49,0002.68,0002.04
2022-07-05 04:18:00,,0827.0,5.00,0.00,29.4,27.8,00.0,38.1,31.3,25.0,0000.0,0005.92,0002.64,0002.02
2022-07-05 04:19:00,,0827.1,5.00,0.00,29.4,28.0,00.0,38.1,31.3,25.0,0000.0,0006.04,0002.64,0002.00
2022-07-05 04:20:00,,0827.1,5.00,0.00,29.4,28.1,00.0,38.2,31.3,24.8,0000.0,0006.11,0002.65,0001.96
2022-07-05 04:21:00,,0827.0,5.00,0.00,29.4,28.2,00.0,38.2,31.4,24.7,0000.0,0005.11,0002.59,0001.92
2022-07-05 04:22:00,,0827.0,4.98,0.00,29.4,28.3,00.0,38.2,31.4,24.7,0000.0,0005.01,0002.56,0001.89
2022-07-05 04:23:00,,0827.0,5.00,0.00,29.5,28.4,00.0,38.2,31.4,24.9,0000.0,0004.91,0002.50,0001.87
2022-07-05 04:24:00,,0826.9,5.00,0.00,29.5,28.5,00.0,38.2,31.4,24.7,0000.0,0004.92,0002.49,0001.88
2022-07-05 04:25:00,,0827.0,5.00,0.00,29.5,28.5,00.0,38.2,31.5,24.2,0000.0,0005.03,0002.44,0001.86
2022-07-05 04:26:00,,0827.1,5.01,0.00,29.6,28.6,00.0,38.2,31.5,24.2,0000.0,0004.83,0002.35,0001.81
2022-07-05 04:27:00,,0827.1,5.00,0.00,29.6,28.1,00.0,38.2,31.5,24.2,0000.0,0004.82,0002.34,0001.78
2022-07-05 04:28:00,,0827.1,5.00,0.00,29.5,27.5,00.0,38.2,31.4,24.2,0000.0,0004.78,0002.32,0001.76
2022-07-05 04:29:00,,0826.9,5.00,0.00,29.5,27.4,00.0,38.2,31.3,24.1,0000.0,0004.25,0002.29,0001.73
2022-07-05 04:30:00,,0826.9,4.99,0.00,29.4,27.4,00.0,38.2,31.2,23.9,0000.0,0004.22,0002.23,0001.69
2022-07-05 04:31:00,,0826.9,5.01,0.00,29.4,27.5,00.0,38.2,31.2,23.8,0000.0,0004.05,0002.14,0001.65
2022-07-05 04:32:00,,0826.9,4.99,0.00,29.4,27.6,00.0,38.2,31.2,23.8,0000.0,0003.99,0002.14,0001.64
2022-07-05 04:33:00,,0826.9,5.00,0.00,29.4,27.8,00.0,38.2,31.2,23.8,0000.0,0003.89,0002.13,0001.61
2022-07-05 04:34:00,,0826.9,5.01,0.00,29.4,27.9,00.0,38.2,31.2,23.9,0000.0,0003.74,0002.08,0001.55
2022-07-05 04:35:00,,0826.9,5.01,0.00,29.4,28.0,00.0,38.2,31.3,23.8,0000.0,0003.61,0002.04,0001.50
2022-07-05 04:36:00,,0826.9,5.00,0.00,29.4,28.1,00.0,38.2,31.3,23.9,0000.0,0003.33,0002.00,0001.47
2022-07-05 04:37:00,,0826.9,4.99,0.00,29.4,28.2,00.0,38.2,31.3,23.9,0000.0,0003.31,0001.98,0001.46
2022-07-05 04:38:00,,0827.0,4.99,0.00,29.5,28.3,00.0,38.2,31.4,23.9,0000.0,0003.19,0001.92,0001.45
2022-07-05 04:39:00,,0827.0,5.00,0.00,29.5,28.4,00.0,38.2,31.4,23.9,0000.0,0003.14,0001.90,0001.46
2022-07-05 04:40:00,,0826.9,5.00,0.00,29.5,28.5,00.0,38.2,31.5,23.9,0000.0,0003.04,0001.89,0001.46
2022-07-05 04:41:00,,0826.9,5.00,0.00,29.6,28.5,00.0,38.2,31.5,23.8,0000.0,0002.90,0001.90,0001.46
2022-07-05 04:42:00,,0826.8,5.00,0.00,29.6,28.1,00.0,38.2,31.5,23.7,0000.0,0002.99,0001.94,0001.47
2022-07-05 04:43:00,,0827.0,4.99,0.00,29.5,27.5,00.0,38.2,31.4,23.8,0000.0,0003.02,0001.95,0001.47
2022-07-05 04:44:00,,0826.8,5.00,0.00,29.5,27.4,00.0,38.2,31.3,23.9,0000.0,0003.04,0001.95,0001.46
2022-07-05 04:45:00,,0826.8,4.99,0.00,29.4,27.4,00.0,38.2,31.2,24.1,0000.0,0003.11,0001.97,0001.47
2022-07-05 04:46:00,,0826.8,5.01,0.00,29.4,27.5,00.0,38.2,31.2,24.2,0000.0,0003.13,0001.96,0001.46
2022-07-05 04:47:00,,0826.9,5.00,0.00,29.4,27.6,00.0,38.2,31.2,24.3,0000.0,0003.23,0001.98,0001.44
2022-07-05 04:48:00,,0827.0,5.00,0.00,29.4,27.8,00.0,38.2,31.2,24.3,0000.0,0003.28,0001.98,0001.43
2022-07-05 04:49:00,,0827.0,5.00,0.00,29.4,27.9,00.0,38.2,31.3,24.2,0000.0,0003.27,0001.98,0001.43
2022-07-05 04:50:00,,0826.9,4.99,0.00,29.4,28.0,00.0,38.2,31.3,24.2,0000.0,0003.28,0001.96,0001.40
2022-07-05 04:51:00,,0827.0,5.00,0.00,29.4,28.1,00.0,38.2,31.3,24.1,0000.0,0003.30,0001.96,0001.38
2022-07-05 04:52:00,,0827.1,5.01,0.00,29.5,28.2,00.0,38.2,31.4,24.1,0000.0,0003.25,0001.93,0001.36
2022-07-05 04:53:00,,0827.0,4.99,0.00,29.5,28.3,00.0,38.2,31.4,24.0,0000.0,0003.16,0001.89,0001.34
2022-07-05 04:54:00,,0827.1,5.00,0.00,29.5,28.4,00.0,38.2,31.4,23.9,0000.0,0003.07,0001.84,0001.33
2022-07-05 04:55:00,,0827.1,5.01,0.00,29.5,28.5,00.0,38.2,31.5,23.9,0000.0,0003.01,0001.82,0001.31
2022-07-05 04:56:00,,0826.8,5.00,0.00,29.6,28.5,00.0,38.2,31.5,23.8,0000.0,0002.97,0001.80,0001.30
2022-07-05 04:57:00,,0826.9,5.00,0.00,29.6,28.4,00.0,38.2,31.5,23.6,0000.0,0002.98,0001.80,0001.31
2022-07-05 04:58:00,,0827.1,5.00,0.00,29.6,27.7,00.0,38.2,31.4,23.8,0000.0,0003.58,0001.80,0001.32
2022-07-05 04:59:00,,0826.8,5.00,0.00,29.5,27.4,00.0,38.2,31.3,23.7,0000.0,0004.13,0001.82,0001.32
